Location: Unspecified
(0.0000°N, 0.0000°E)
Time: 14:09:27
(UTC+00:00)

Vanguard 2 Rocket - Visible Passes

Search period start: 01 September 2015 00:00
Search period end: 11 September 2015 00:00
Orbit: 554 x 3331 km, 32.9° (Epoch: 31 August)

Date Brightness Start Highest point End Pass type
(mag) Time Alt. Az. Time Alt. Az. Time Alt. Az.
01 Sep 10.6 00:36:09 21° ENE 00:36:09 21° ENE 00:40:50 10° ENE visible
01 Sep 9.6 02:42:00 53° NNW 02:42:00 53° NNW 02:59:59 10° NE visible
01 Sep 10.5 04:47:51 12° WNW 05:02:06 26° NNW 05:16:30 10° NNE visible
02 Sep 9.9 01:46:17 44° NNE 01:46:17 44° NNE 01:58:32 10° NE visible
02 Sep 10.1 03:52:08 27° NW 03:59:16 32° NNW 04:15:53 10° NNE visible
03 Sep 10.5 00:50:33 25° NE 00:50:33 25° NE 00:56:35 10° NE visible
03 Sep 9.8 02:56:23 40° NNW 02:56:44 40° NNW 03:14:54 10° NE visible
03 Sep 10.7 05:05:57 10° WNW 05:19:37 21° NNW 05:32:10 10° NNE visible
04 Sep 9.9 02:00:37 40° NNE 02:00:37 40° NNE 02:13:31 10° NE visible
04 Sep 10.4 04:06:27 17° NW 04:16:28 25° NNW 04:31:07 10° NNE visible
05 Sep 10.4 01:04:49 27° NE 01:04:49 27° NE 01:11:49 10° NE visible
05 Sep 10.1 03:10:39 29° NW 03:13:37 30° NNW 03:29:51 10° NNE visible
05 Sep 10.8 05:25:07 10° NW 05:37:30 18° N 05:48:52 10° NNE visible
06 Sep 10.9 00:08:59 12° NE 00:08:59 12° NE 00:09:47 10° NE visible
06 Sep 10.1 02:14:49 34° N 02:14:49 34° N 02:28:23 10° NE visible
06 Sep 10.6 04:21:14 10° NW 04:34:08 20° N 04:47:02 10° NNE visible
07 Sep 10.4 01:18:58 27° NNE 01:18:58 27° NNE 01:26:43 10° NE visible
07 Sep 10.3 03:24:49 20° NW 03:30:58 23° NNW 03:45:11 10° NNE visible
08 Sep 10.8 00:23:07 14° NE 00:23:07 14° NE 00:24:56 10° NE visible
08 Sep 10.2 02:28:57 27° NNW 02:28:57 27° NNW 02:43:19 10° NNE visible
08 Sep 10.7 04:40:00 10° NW 04:52:07 19° N 05:04:11 10° NE visible
09 Sep 10.4 01:33:05 25° NNE 01:33:05 25° NNE 01:41:30 10° NE visible
09 Sep 10.5 03:38:55 13° NW 03:48:43 19° N 04:01:22 10° NNE visible
10 Sep 10.8 00:37:13 15° NE 00:37:13 15° NE 00:39:44 10° NE visible
10 Sep 10.4 02:43:03 20° NNW 02:45:42 21° N 02:58:43 10° NNE visible
10 Sep 10.8 04:57:35 10° NNW 05:10:06 20° N 05:22:38 10° NE visible
